Location: Dappach
(48.9767°N, 9.6998°E)
Time: 03:41:47
(UTC+00:00)

Cosmos 2278 - Pass Details

Date: 23 May 2024
Orbit: 837 x 853 km, 71.1° (Epoch: 13 June)

Event Time Altitude Azimuth Distance (km) Brightness Sun altitude
Rises 00:33:16 0° 332° (NNW) 3,432 7.5 -18.4°
Reaches altitude 10° 00:35:44 10° 333° (NNW) 2,493 6.8 -18.3°
Maximum altitude 00:41:29 79° 61° (ENE) 874 3.8 -17.9°
Enters shadow 00:46:54 12° 148° (SSE) 2,370 5.7 -17.6°
